Weather in Vazhnoye

Russia / Karachay-Cherkess Republic     43°59′28″N   41°56′32″E
temp.,
°C
wind,
m/s
gust,
m/s
humid.,
%
clouds,
%
prec.,
mm/h
press.,
hPa
HPBL,
m
20 april, tue
tue2000:00+11s2282100 0.0 101331
03:00+12sse3373100 0.0 100941
06:00+12s4468100 0.0 100751
09:00+21sse2444100 0.0 1003325
12:00+22sw81939100 0.0 10042347
15:00+21ssw1643100 0.0 10051144
18:00+13nnw3495100 0.2 1010367
21:00+10nne4493100 0.4 1012373
21 april, wed
wed2100:00+7ene34706 0.0 101499
03:00+7nne226410 0.0 101642
06:00+6ene237523 0.0 101696
09:00+9ene337078 0.0 1017843
12:00+11ene5567100 0.1 10161019
15:00+9ne4579100 0.2 1018682
18:00+8nne3495100 0.0 1019379
21:00+7nne2297100 0.1 1021200
22 april, thu
thu2200:00+7n1196100 0.0 1020157
03:00+7nne1196100 0.0 1020101
06:00+7se1197100 1.1 1020116
09:00+8nne3394100 1.3 1021358
12:00+11nne2278100 0.1 1020723
15:00+11n3376100 0.5 1019682
18:00+8n3488100 0.1 1020382
21:00+7w2398100 2.7 1022261
23 april, fri
fri2300:00+7sw1293100 4.6 1021268
03:00+6wsw1190100 4.9 1021131
06:00+6sw1293100 1.2 1023164
09:00+6ssw3486100 3.5 1024409
12:00+12wnw226135 0.3 10211254
15:00+12nnw336397 1.9 10211303
18:00+10nne237892 0.3 1021103
21:00+8ese228781 0.3 102122
24 april, sat
sat2400:00+7s2184100 0.0 101914
03:00+7sse2277100 0.1 101816
06:00+7s2268100 0.1 102039
09:00+11wnw225123 0.1 1019769
12:00+14nnw335220 0.0 10181373
15:00+13n436687 0.4 10181002
18:00+10ene237796 0.3 1019313
21:00+10ene1178100 0.3 102046